Regional Weather Roundup
Issued by NWS

Home | Current Version | Previous Version | Graphics & Text | Print | Product List | Glossary On
Versions: 1 2 3 4 5 6 7 8 9 10 11 12 13 14 15 16 17 18 19 20 21 22 23 24 25 26 27 28 29 30 31 32 33 34 35 36 37 38 39 40 41 42 43 44 45 46 47 48 49 50
000
ASUS43 KTOP 210859
RWRKS

WEATHER ROUNDUP FOR KANSAS
NATIONAL WEATHER SERVICE GOODLAND KS
300 AM CST SAT JAN 21 2017

NOTE:  "FAIR" INDICATES FEW OR NO CLOUDS BELOW 12,000 FEET WITH NO
SIGNIFICANT WEATHER AND/OR OBSTRUCTIONS TO VISIBILITY.

KSZ001>006-013>018-027>032-041>047-211000-
NORTHWEST KANSAS

CITY           SKY/WX    TMP DP  RH WIND       PRES   REMARKS
GOODLAND       CLEAR     28  25  88 SW9       29.44R
HAYS           CLEAR     31  30  96 W10       29.47R WCI  22
HILL CITY      CLEAR     33  32  96 W8        29.44S
RUSSELL        CLEAR     33  31  92 SW10      29.44R WCI  25
$$

KSZ061>065-074>080-084>089-211000-
SOUTHWEST KANSAS

CITY           SKY/WX    TMP DP  RH WIND       PRES   REMARKS
DODGE CITY     CLEAR     28  28 100 W3        29.50S
ELKHART          N/A     32  22  67 S6          N/A
GARDEN CITY    CLEAR     26  24  92 NW8       29.48F
GREAT BEND     CLEAR     34  32  92 SW10      29.49R WCI  26
LIBERAL        CLEAR     30  25  80 SW7       29.48F
$$

KSZ066>073-081>083-090>101-211000-
SOUTHEAST KANSAS

CITY           SKY/WX    TMP DP  RH WIND       PRES   REMARKS
CHANUTE        CLEAR     41  36  82 S9        29.51R
COFFEYVILLE    CLEAR     47  36  65 SW7       29.54R
HUTCHINSON     CLEAR     35  33  92 S6        29.50R
MEDICINE LODGE   N/A     30  28  92 N5        29.52S
NEWTON         CLEAR     36  35  96 SW13      29.50R WCI  27
PARSONS        CLEAR     44  36  73 SW7       29.53R
WICHITA INTL   CLEAR     32  31  96 W9        29.51R
WICHITA JABRA  CLEAR     38  36  92 W9        29.50R
WINFIELD       CLEAR     35  33  92 SW6       29.55R
$$

KSZ007>012-019>026-033>040-048>060-102>105-211000-
NORTHEAST KANSAS

CITY           SKY/WX    TMP DP  RH WIND       PRES   REMARKS
CONCORDIA      PTCLDY    37  37 100 W8        29.42S
EMPORIA        CLOUDY    40  40 100 W8G22     29.46S FOG
LAWRENCE       CLEAR     37  37 100 SW7       29.45S FOG
MANHATTAN      PTCLDY    41  40  96 SW7       29.44S FOG
OLATHE IND     CLEAR     38  38 100 S9        29.44R
OLATHE EXE     CLEAR     38  38 100 SW5       29.43S
SALINA           N/A    N/A N/A N/A MISG        N/A
TOPEKA BILLARD FOG       38  34  85 CALM      29.45R VSB 1
TOPEKA FORBES  FOG       37  35  92 SW7       29.44R VSB 1/4
$$




USA.gov is the U.S. government's official web portal to all federal, state and local government web resources and services.